Powrót do katalogu

NOAA 16 DEB

AktywnySSO
NORAD 41531·DEBRIS·🇺🇸 United States

Wystrzelony Sep 21, 2000 z Vandenberg Space Force Base

Loading…

Następne Przeloty (najbliższe 24 godziny)

TLE

ŚwieżeSource: Space-Track

Epoka: Sep 13, 2026, 07:40 UTC

1 41531U 00055NF  26256.31998756  .00001649  00000-0  81242-3 0  9993
2 41531  98.6309 277.5761 0027539 326.1392  33.8025 14.18698610535679

Śledź NOAA 16 DEB w czasie rzeczywistym z AllMySat

Download on the App Store